Tracking 19245 objects as of 18-Aug-2018
HD Live streaming from Space Station
objects crossing your sky now

ORBCOMM FM 35

Track ORBCOMM FM 35 now!
10-day predictions
ORBCOMM FM 35 is classified as:


NORAD ID: 25985
Int'l Code: 1999-065F
Perigee: 786.4 km
Apogee: 793.2 km
Inclination: 45.0 °
Period: 100.5 minutes
Semi major axis: 7160 km
RCS: 0.5674 m2 (medium)
Launch date: December 4, 1999
Source: ORBCOMM (ORB)
Launch site: AIR FORCE EASTERN TEST RANGE (AFETR)
aabbcc
Your satellite tracking list
Your tracking list is empty




NASA's NSSDC Master Catalog

Two Line Element Set (TLE):
1 25985U 99065F   18229.65609639  .00000044  00000-0  67296-4 0  9996
2 25985  45.0420 319.0618 0004774 218.4466 141.6041 14.32711854976822
Source of the keplerian elements: AFSPC